Location: Igon
(43.1667°N, 0.2333°W)
Time: 22:00:34
(UTC+00:00)

Okean O Rocket - Pass Details

Date: 29 November 2020
Orbit: 623 x 644 km, 98.2° (Epoch: 18 January)

Event Time Altitude Azimuth Distance (km) Brightness Sun altitude
Rises 06:15:09 0° 16° (NNE) 2,956 5.0 -10.1°
Reaches altitude 10° 06:17:23 10° 19° (NNE) 2,045 4.2 -9.7°
Maximum altitude 06:21:49 64° 101° (ESE) 717 2.2 -9.0°
Drops below altitude 10° 06:26:13 10° 184° (S) 2,035 4.5 -8.2°
Sets 06:28:26 0° 187° (S) 2,940 5.2 -7.8°
